GFSFLT2_850_dewp_021.txt.gz
Dewpoint
12 11 9 4 2 1 -1 -7 -6 -4 1 2 1 -0 -1 -2 -2 -3 -3 -4 -4 -3 -4 -4 -4 -5 -5 -6 -5 -4 -3 -4
11 7 5 3 2 0 -3 -8 -3 2 2 2 1 -0 -0 -2 -2 -2 -2 -4 -3 -2 -2 -2 -3 -3 -3 -2 -2 -3 -4 -4
5 2 1 1 0 -2 -6 -6 -2 3 4 3 3 3 1 -1 -2 -2 -2 -2 -2 -1 -0 0 -0 -1 -1 -1 -1 -1 -2 -2
-2 -4 -3 -4 -5 -8 -7 -2 4 5 5 5 5 4 2 0 -1 -0 1 0 1 1 0 1 -1 -0 -1 -1 -1 -0 -1 -1
-5 -7 -10 -9 -7 -6 -3 3 6 6 5 5 5 5 3 2 -0 1 1 2 2 2 -0 -0 0 1 0 -2 -1 -1 -2 -1
0 1 -6 -6 -2 2 5 7 7 7 5 5 6 6 5 2 0 1 1 1 1 1 -1 -1 1 1 0 -2 -3 -2 -2 -0
3 5 4 4 6 7 8 7 8 9 8 8 6 4 4 2 1 1 1 2 1 -0 -1 0 1 1 -1 -2 -3 -3 -4 -3
5 6 6 7 8 8 8 8 7 8 9 8 6 5 5 4 3 3 4 4 3 2 2 1 -1 -2 -2 -3 -3 -4 -6 -7
7 7 7 7 8 9 9 5 4 4 9 7 6 6 5 5 5 5 5 4 3 1 -1 -2 -2 -3 -3 -3 -3 -4 -4 -5
9 9 8 8 9 7 7 7 7 6 8 7 7 6 6 6 5 4 2 2 1 -0 -1 -1 -2 -3 -2 -2 -3 -3 -3 -4
10 11 10 9 7 6 7 8 7 6 7 6 5 5 3 3 2 2 2 -0 -1 -1 -1 -2 -3 -3 -2 -2 -2 -2 -2 -3
9 10 9 9 7 9 8 7 5 5 6 4 3 2 2 2 2 1 -0 -1 -1 -1 -1 -1 -1 -3 -7 -9 -11 -15 -18 -12
10 10 8 8 8 7 5 5 6 2 1 1 1 1 0 0 0 -0 -1 -1 -1 -1 -0 -1 -6 -11 -12 -7 -7 -15 -5 -7
10 9 8 6 5 5 5 1 0 0 1 1 0 1 1 0 -0 -0 -0 -1 -3 -5 -8 -10 -10 -12 -15 -7 -8 -8 -3 -4
9 7 5 5 5 1 0 1 1 1 1 2 2 1 1 0 -2 -5 -6 -7 -6 -5 -4 -5 -10 -14 -18 -6 -6 -7 -5 -6
3 1 2 2 1 2 2 2 2 2 2 1 1 0 -2 -6 -9 -12 -8 -4 -4 -3 -3 -9 -16 -15 -16 -8 -7 -5 -6 -7
1 1 2 2 2 2 2 2 2 2 1 -2 -5 -8 -9 -9 -8 -10 -10 -7 -3 -3 -6 -14 -17 -18 -11 -8 -7 -6 -6 -5
2 2 3 2 2 2 1 1 -1 -5 -9 -8 -8 -9 -9 -9 -5 -3 -4 -4 -4 -4 -8 -9 -11 -16 -12 -9 -9 -8 -8 -8
3 3 2 1 -1 -4 -10 -14 -14 -15 -14 -11 -8 -6 -8 -11 -10 -3 -1 -3 -2 -4 -5 -8 -13 -14 -14 -10 -11 -9 -8 -8
3 2 -1 -5 -8 -11 -11 -11 -10 -8 -7 -6 -11 -15 -15 -12 -9 -3 -2 -4 -5 -3 -7 -11 -12 -13 -13 -13 -12 -9 -12 -10

GFSFLT2_850_dewp_024.txt.gz
Dewpoint
12 12 11 9 6 3 0 -4 -4 -5 -4 2 3 1 -0 -1 -2 -2 -3 -3 -3 -3 -3 -3 -2 -2 -2 -2 -1 -1 3 2
12 11 10 9 6 3 -0 -4 -2 1 4 4 2 1 -0 -0 -0 -1 -1 -1 -1 -1 -1 -1 -1 -1 -1 -1 -2 3 4 3
11 12 11 12 11 4 -1 -3 2 4 5 5 4 9 7 7 0 -1 -1 -1 0 0 0 -1 -0 3 3 1 3 2 3 2
10 10 10 10 8 1 -3 -1 8 10 10 7 10 6 7 3 -1 -1 0 1 2 2 1 -0 3 4 3 3 3 3 2 3
9 9 4 4 8 8 7 8 10 8 8 8 8 7 6 8 7 5 1 1 6 5 4 4 0 1 3 2 1 1 1 1
9 1 -3 -2 5 7 5 10 10 9 8 6 6 9 7 8 6 2 2 2 2 1 3 1 1 2 1 -1 -2 -1 -1 -1
5 -1 -6 -4 2 4 7 7 8 9 9 9 8 9 5 5 3 4 2 3 4 4 3 3 3 2 1 -1 -1 -1 -1 -2
4 5 2 4 6 7 8 8 7 6 6 6 8 6 6 6 4 4 4 4 4 4 3 2 2 1 1 1 -1 -0 -0 -1
7 6 5 7 8 9 6 4 3 3 6 5 7 6 7 6 6 6 5 5 3 2 1 1 1 0 -0 -0 -1 -1 -1 -0
7 7 7 7 9 8 5 5 6 8 7 7 7 7 6 6 6 3 2 2 1 -0 1 1 0 0 -0 -0 -1 -1 -1 -2
8 8 8 9 9 8 5 6 8 8 6 6 6 5 4 3 3 2 1 -0 -1 -0 1 1 1 1 0 -2 -3 -3 -4 -7
9 9 10 10 5 7 7 8 6 5 6 5 4 2 3 1 0 0 -0 1 2 2 1 1 0 -1 -1 -7 -6 -6 -6 -5
10 10 10 8 7 7 7 5 5 5 4 2 2 2 1 0 1 1 1 1 1 -1 -1 -2 -3 -3 -2 -6 -7 -8 -3 -2
10 10 10 9 6 6 6 6 5 2 1 2 2 1 1 1 0 1 -0 -2 -0 -1 -2 -3 -4 -4 -3 -5 -8 -9 -10 -3
11 10 9 6 6 6 5 3 1 2 3 2 2 1 0 -1 -2 -6 -8 -5 -5 -2 -2 -2 -4 -6 -6 -6 -6 -8 -8 -8
8 7 5 5 5 4 4 4 4 3 2 2 1 -1 -3 -6 -8 -8 -4 -3 -2 -3 -4 -3 -4 -6 -7 -7 -6 -6 -7 -7
5 4 3 2 2 3 3 2 2 1 0 -2 -1 -2 -1 -1 -2 -2 -2 -1 -2 -2 -3 -3 -5 -5 -7 -7 -7 -8 -8 -8
2 3 2 2 2 2 1 -3 -4 -4 -3 -4 -5 -4 -3 -2 -1 -1 -1 -2 -2 -2 -2 -3 -4 -5 -7 -7 -8 -8 -9 -9
3 3 3 2 1 -3 -7 -5 -5 -4 -4 -4 -3 -6 -7 -6 -4 -5 -3 -2 -1 -2 -3 -3 -4 -6 -6 -7 -7 -8 -9 -8
3 3 1 -1 -6 -5 -4 -9 -4 -4 -5 -7 -8 -7 -8 -7 -7 -5 -3 -2 -1 -3 -3 -4 -3 -4 -6 -7 -7 -8 -9 -9

GFSFLT2_850_dewp_027.txt.gz
Dewpoint
12 12 11 10 6 3 2 -4 -3 -5 -6 2 2 -0 -1 -2 -3 -4 -4 -3 -2 -2 -1 -1 -1 -1 -0 -1 2 2 3 3
12 12 10 8 7 4 -0 -4 -3 -3 4 4 2 1 0 1 -0 -2 -2 -2 -1 -0 -0 -1 1 4 3 2 3 2 3 2
12 10 11 11 7 4 -1 -2 2 3 5 4 6 9 9 9 1 -1 -1 -0 0 1 0 -1 4 4 4 3 3 3 2 2
11 11 11 11 10 7 4 1 7 10 10 9 10 10 10 8 2 -1 -0 1 1 1 2 4 5 4 4 4 3 3 1 1
9 10 11 10 9 7 6 8 9 10 11 10 9 10 10 9 8 7 7 5 7 6 6 5 6 5 5 4 3 2 1 1
11 11 10 9 7 6 7 9 10 9 8 7 10 10 10 9 7 6 6 6 6 6 5 6 5 4 3 3 3 2 1 1
9 10 8 8 7 8 10 10 10 11 10 7 8 8 7 8 8 7 7 6 6 6 5 5 4 3 3 2 2 2 1 1
9 8 8 9 10 10 10 10 6 7 6 5 6 7 5 7 6 6 7 7 7 6 5 4 3 2 2 1 1 1 0 0
9 9 10 10 10 9 5 3 3 3 5 6 6 7 6 5 6 7 7 5 2 2 2 2 2 1 1 1 0 -1 -2 -1
10 10 11 11 9 7 5 3 2 4 5 7 7 7 6 6 7 6 4 2 3 3 2 2 2 2 1 1 -0 -4 -5 -3
11 10 9 8 8 7 4 6 5 6 8 6 6 6 6 5 3 3 1 3 3 3 3 3 2 2 -1 -3 -3 -7 -6 -7
12 11 8 7 7 6 6 7 7 7 6 6 5 4 3 4 4 1 2 3 3 4 3 2 0 -2 -4 -3 -3 -5 -7 -5
12 12 9 9 9 9 9 8 7 6 6 5 3 3 2 2 3 3 3 3 2 2 1 -1 -3 -4 -4 -4 -5 -7 -8 -8
11 11 10 10 10 9 8 7 6 5 4 3 3 2 2 2 2 2 1 0 -2 -3 -1 -1 -3 -4 -5 -6 -6 -8 -8 -7
11 10 10 10 8 7 7 6 5 4 4 4 3 2 2 1 1 0 -1 -2 -3 -3 -2 -2 -3 -4 -4 -6 -6 -7 -7 -8
10 10 9 7 6 5 5 4 4 4 4 3 2 2 1 -1 -2 -1 -1 -1 -1 -2 -3 -3 -3 -4 -5 -5 -6 -7 -8 -9
9 7 6 6 5 5 5 4 4 3 1 0 -2 -1 -2 -2 -1 -1 -0 -1 -1 -2 -2 -2 -3 -3 -4 -6 -8 -9 -9 -9
7 5 5 5 5 5 4 2 -1 -3 -2 -3 -4 -4 -4 -5 -5 -4 -4 -4 -2 -2 -2 -2 -2 -2 -4 -7 -7 -8 -8 -7
5 4 4 4 3 1 -0 -4 -2 1 -2 -4 -5 -7 -7 -7 -6 -6 -6 -5 -3 -2 -3 -3 -3 -3 -4 -5 -6 -6 -6 -7
4 4 4 3 0 -1 -1 -2 -2 -4 -5 -6 -6 -7 -8 -7 -7 -6 -6 -4 -4 -3 -2 -2 -3 -2 -2 -3 -4 -5 -5 -6

GFSFLT2_850_dewp_030.txt.gz
Dewpoint
12 12 11 11 9 4 -0 -3 -4 -7 -6 0 -2 -3 -3 -3 -4 -4 -4 -3 -2 -1 -1 -1 3 3 3 2 3 2 3 3
9 12 11 9 5 2 -2 -3 -6 -5 2 0 -1 0 -1 -2 -2 -3 -2 -1 -1 -1 -1 -0 4 4 4 3 3 2 2 2
12 11 9 6 3 -0 -5 -3 -3 3 2 8 9 9 9 9 2 -2 -1 -0 -0 0 1 4 5 5 5 4 3 2 1 1
9 10 9 8 3 -0 -1 4 5 6 4 10 9 10 9 7 6 4 3 3 6 6 6 6 6 5 5 4 3 2 1 1
10 9 10 10 5 1 7 9 10 11 10 10 9 7 9 9 10 7 6 6 7 6 6 6 5 5 4 3 3 3 2 1
10 10 9 8 5 6 8 10 10 8 7 7 6 9 8 9 7 7 7 6 6 6 6 6 5 4 3 3 2 2 1 1
10 7 9 6 7 7 9 8 8 8 9 7 8 9 8 6 6 5 7 6 6 6 6 5 4 3 2 2 1 1 1 0
9 7 7 7 8 10 9 7 6 7 7 6 5 5 5 6 8 6 5 3 4 5 2 2 2 2 2 1 1 1 -0 -1
8 7 8 9 8 8 6 4 3 5 5 4 5 5 5 6 5 4 5 6 6 3 1 2 2 2 2 2 0 0 0 -4
8 9 10 9 8 5 2 1 2 5 6 6 7 7 6 6 4 4 5 4 2 1 3 3 2 3 2 -1 -4 -4 -4 -5
10 11 10 8 6 5 3 3 3 4 5 7 6 6 6 6 4 3 1 1 3 4 4 2 1 -3 -4 -5 -5 -5 -4 -7
10 10 9 10 8 6 6 5 5 5 7 6 5 4 4 3 3 2 2 3 3 2 1 -1 -3 -5 -4 -5 -4 -4 -7 -7
11 11 9 8 8 8 8 6 6 7 6 5 4 2 2 2 3 3 3 2 1 -2 -4 -4 -4 -2 -4 -4 -5 -6 -6 -8
11 11 11 9 10 9 8 8 6 6 5 3 3 3 3 2 2 1 0 -2 -6 -4 -3 -3 -2 -3 -4 -4 -4 -5 -6 -7
10 11 10 10 10 8 8 7 6 5 3 3 3 3 2 1 0 -2 -4 -3 -2 -2 -2 -2 -3 -3 -4 -4 -4 -4 -6 -7
10 10 10 9 8 7 7 6 4 4 4 4 3 1 -2 -2 -1 -1 -0 -0 -3 -2 -1 -2 -2 -2 -3 -3 -5 -5 -7 -7
11 10 8 8 6 6 5 5 4 4 3 2 -2 -2 -2 -2 -2 -3 -2 -1 -3 -3 -2 -2 -2 -2 -2 -3 -5 -6 -7 -8
9 8 7 7 6 5 5 5 3 1 -1 -1 -2 -3 -3 -4 -6 -5 -7 -11 -7 -5 -3 -3 -2 -3 -3 -4 -4 -4 -6 -6
8 6 6 5 5 5 5 4 1 -3 1 -2 -3 -4 -6 -7 -7 -9 -9 -11 -7 -4 -3 -2 -2 -4 -3 -4 -4 -4 -4 -5
6 5 5 5 4 2 1 -1 -1 -1 -2 -3 -5 -6 -6 -8 -8 -7 -10 -8 -6 -5 -4 -3 -3 -2 -3 -3 -4 -3 -3 -4

GFSFLT2_850_dewp_033.txt.gz
Dewpoint
12 10 8 10 6 0 -5 -9 -10 -9 -3 -4 -6 -6 -6 -6 -5 -4 -3 -3 -2 -2 -0 4 5 4 4 3 1 2 2 2
9 7 8 10 4 -1 -7 -9 -9 -3 -3 -3 -2 -2 -4 -3 -5 -4 -3 -2 -1 -0 3 5 5 5 5 4 3 2 1 1
9 9 11 7 2 -3 -7 -7 -4 -0 1 6 4 6 7 2 -2 -3 -2 -1 2 6 5 5 5 5 4 4 3 2 1 1
9 10 9 5 0 -4 -6 -5 1 3 8 8 8 9 8 6 7 5 5 6 7 6 7 6 6 5 4 3 3 2 2 1
9 10 8 3 -2 -5 -1 5 5 6 8 10 8 9 9 9 8 6 7 7 6 6 6 6 5 5 4 3 3 2 1 0
9 11 9 5 -4 0 6 8 8 9 8 10 11 8 9 8 7 8 6 6 6 6 6 6 5 5 3 2 2 1 1 0
11 10 7 3 6 8 10 9 8 7 7 9 8 8 9 8 7 7 7 6 5 5 6 6 2 0 -0 0 1 1 1 0
10 9 6 7 8 8 10 8 8 6 9 8 8 7 6 5 5 6 5 5 5 4 5 3 1 -1 -0 1 0 -1 -0 0
7 8 6 8 8 9 9 8 7 8 6 4 4 4 4 5 6 5 5 5 6 5 3 -0 -0 0 -0 -1 -1 -3 -3 -5
1 5 8 7 6 9 8 6 6 4 3 4 6 6 6 6 6 4 5 3 1 -1 -0 1 2 0 -4 -8 -6 -5 -7 -11
5 5 7 7 6 6 5 3 2 2 3 6 6 6 6 6 4 3 2 -0 0 1 2 2 -3 -4 -6 -8 -8 -6 -5 -8
5 7 8 9 7 4 3 4 5 5 5 6 6 5 4 2 0 1 0 1 2 2 -1 -6 -7 -7 -7 -7 -7 -10 -8 -7
7 7 9 8 6 4 5 7 6 6 6 6 4 3 2 2 1 2 3 2 0 -4 -6 -6 -7 -7 -7 -8 -11 -6 -7 -6
9 8 9 10 6 6 8 8 6 6 6 5 3 2 1 2 2 2 -0 -4 -8 -8 -8 -10 -7 -5 -4 -5 -5 -6 -5 -5
10 10 8 9 8 9 9 7 6 6 5 2 2 2 2 1 -1 -3 -3 -4 -5 -6 -7 -7 -3 -3 -3 -4 -3 -4 -5 -6
11 10 9 9 9 10 8 7 6 5 3 4 3 3 -2 -2 -2 -2 -4 -4 -4 -3 -5 -5 -5 -4 -3 -3 -4 -4 -5 -5
11 10 10 9 8 8 8 7 6 4 4 4 3 -1 -1 -1 -2 -2 -3 -3 -4 -8 -15 -6 -2 -2 -2 -2 -3 -4 -6 -5
10 10 9 8 9 8 7 6 6 4 4 3 -1 -2 -2 -3 -3 -4 -5 -7 -16 -21 -13 -8 -3 -2 -3 -4 -4 -3 -3 -4
10 10 9 8 6 6 6 5 5 4 3 -1 -1 -2 -3 -4 -5 -8 -10 -15 -18 -15 -10 -6 -4 -4 -4 -3 -3 -3 -3 -3
9 9 8 7 6 5 5 4 3 2 -1 -1 -0 -1 -3 -10 -10 -14 -14 -11 -13 -13 -13 -7 -5 -2 -2 -2 -3 -3 -4 -3